| time (UTC) | temp F | wind direction | speed MPH | gust MPH | rain 1hr in | rain 24hr in | rain mn in | humidity % | barometer mb |
| 20260905073743 | 39 | 312 | 0.0 | 0.0 | 0.00 | 0.45 | 0.00 | 97 | 1014.7 |
| 20260905073244 | 38 | 176 | 0.0 | 0.0 | 0.00 | 0.45 | 0.00 | 97 | 1014.8 |
| 20260905072745 | 38 | 255 | 0.0 | 0.0 | 0.00 | 0.45 | 0.00 | 97 | 1014.7 |
| 20260905072246 | 38 | 24 | 0.0 | 2.0 | 0.00 | 0.45 | 0.00 | 97 | 1014.7 |
| 20260905071745 | 38 | 24 | 0.0 | 0.0 | 0.00 | 0.45 | 0.00 | 96 | 1014.6 |
| 20260905071246 | 37 | 24 | 0.0 | 0.0 | 0.00 | 0.45 | 0.00 | 96 | 1014.7 |
| 20260905070747 | 37 | 24 | 0.0 | 0.0 | 0.00 | 0.45 | 0.00 | 96 | 1014.6 |
| 20260905070248 | 37 | 24 | 0.0 | 0.0 | 0.00 | 0.45 | 0.00 | 96 | 1014.6 |
| 20260905065749 | 37 | 24 | 0.0 | 0.0 | 0.00 | 0.21 | 0.45 | 96 | 1014.6 |
| 20260905065247 | 38 | 24 | 0.0 | 0.0 | 0.00 | 0.21 | 0.45 | 95 | 1014.5 |
| 20260905064748 | 38 | 24 | 0.0 | 0.0 | 0.00 | 0.21 | 0.45 | 95 | 1014.5 |
| 20260905064249 | 38 | 24 | 0.0 | 0.0 | 0.00 | 0.21 | 0.45 | 95 | 1014.5 |
| 20260905063751 | 38 | 24 | 0.0 | 0.0 | 0.00 | 0.21 | 0.45 | 95 | 1014.5 |
| 20260905063252 | 39 | 24 | 0.0 | 0.0 | 0.00 | 0.21 | 0.45 | 96 | 1014.5 |
| 20260905062758 | 39 | 24 | 0.0 | 0.0 | 0.00 | 0.21 | 0.45 | 95 | 1014.6 |
| 20260905062251 | 39 | 24 | 0.0 | 0.0 | 0.00 | 0.21 | 0.45 | 95 | 1014.6 |
| 20260905061752 | 39 | 24 | 0.0 | 0.0 | 0.00 | 0.21 | 0.45 | 96 | 1014.5 |
| 20260905061253 | 39 | 24 | 0.0 | 0.0 | 0.00 | 0.21 | 0.45 | 96 | 1014.6 |
| 20260905060754 | 39 | 24 | 0.0 | 0.0 | 0.00 | 0.21 | 0.45 | 96 | 1014.6 |
| 20260905055754 | 39 | 24 | 0.0 | 0.0 | 0.00 | 0.21 | 0.45 | 96 | 1014.7 |
| 20260905055255 | 39 | 24 | 0.0 | 0.0 | 0.00 | 0.21 | 0.45 | 97 | 1014.8 |
| 20260905054756 | 39 | 24 | 0.0 | 0.0 | 0.00 | 0.21 | 0.45 | 97 | 1014.8 |
| 20260905054257 | 39 | 24 | 0.0 | 0.0 | 0.00 | 0.21 | 0.45 | 97 | 1014.7 |
| 20260905053755 | 39 | 24 | 0.0 | 0.0 | 0.00 | 0.21 | 0.45 | 96 | 1014.7 |
| 20260905053257 | 39 | 24 | 0.0 | 0.0 | 0.00 | 0.21 | 0.45 | 96 | 1014.7 |
| 20260905052758 | 39 | 24 | 0.0 | 0.0 | 0.00 | 0.21 | 0.45 | 96 | 1014.7 |
| 20260905052259 | 39 | 24 | 0.0 | 0.0 | 0.00 | 0.21 | 0.45 | 96 | 1014.7 |
| 20260905051800 | 39 | 24 | 0.0 | 0.0 | 0.00 | 0.21 | 0.45 | 96 | 1014.7 |
| 20260905051258 | 39 | 24 | 0.0 | 0.0 | 0.00 | 0.21 | 0.45 | 96 | 1014.7 |
| 20260905050759 | 39 | 24 | 0.0 | 0.0 | 0.00 | 0.21 | 0.45 | 96 | 1014.8 |
| 20260905050300 | 39 | 24 | 0.0 | 0.0 | 0.00 | 0.21 | 0.45 | 96 | 1014.8 |
| 20260905045801 | 39 | 24 | 0.0 | 0.0 | 0.00 | 0.21 | 0.45 | 96 | 1014.8 |
| 20260905045305 | 39 | 24 | 0.0 | 0.0 | 0.00 | 0.21 | 0.45 | 96 | 1014.8 |
| 20260905044801 | 40 | 24 | 0.0 | 0.0 | 0.00 | 0.21 | 0.45 | 96 | 1014.8 |
| 20260905044302 | 40 | 24 | 0.0 | 0.0 | 0.00 | 0.21 | 0.45 | 96 | 1014.8 |
| 20260905043803 | 40 | 24 | 0.0 | 0.0 | 0.00 | 0.21 | 0.45 | 96 | 1015.0 |
| 20260905043304 | 40 | 24 | 0.0 | 0.0 | 0.00 | 0.21 | 0.45 | 96 | 1014.8 |
| 20260905042805 | 40 | 24 | 0.0 | 0.0 | 0.00 | 0.21 | 0.45 | 96 | 1014.8 |
| 20260905042306 | 40 | 24 | 0.0 | 0.0 | 0.00 | 0.21 | 0.45 | 96 | 1015.0 |
| 20260905041805 | 40 | 24 | 0.0 | 0.0 | 0.00 | 0.21 | 0.45 | 96 | 1015.0 |
| 20260905041306 | 40 | 24 | 0.0 | 0.0 | 0.00 | 0.21 | 0.45 | 96 | 1015.0 |
| 20260905040807 | 40 | 24 | 0.0 | 0.0 | 0.00 | 0.21 | 0.45 | 96 | 1015.1 |
| 20260905040308 | 40 | 24 | 0.0 | 0.0 | 0.00 | 0.21 | 0.45 | 96 | 1015.1 |
| 20260905035806 | 40 | 24 | 0.0 | 0.0 | 0.06 | 0.21 | 0.45 | 96 | 1015.0 |
| 20260905035307 | 40 | 24 | 0.0 | 0.0 | 0.06 | 0.21 | 0.45 | 96 | 1014.8 |
| 20260905034808 | 40 | 24 | 0.0 | 0.0 | 0.06 | 0.21 | 0.45 | 96 | 1014.7 |
| 20260905034309 | 40 | 24 | 0.0 | 0.0 | 0.06 | 0.21 | 0.45 | 96 | 1014.8 |
| 20260905033810 | 40 | 24 | 0.0 | 0.0 | 0.06 | 0.21 | 0.45 | 96 | 1014.8 |
| 20260905033309 | 40 | 24 | 0.0 | 0.0 | 0.06 | 0.21 | 0.45 | 96 | 1014.7 |
| 20260905032810 | 39 | 24 | 0.0 | 0.0 | 0.06 | 0.21 | 0.45 | 96 | 1014.7 |
| 20260905032311 | 39 | 24 | 0.0 | 0.0 | 0.06 | 0.21 | 0.45 | 96 | 1014.7 |
| 20260905031812 | 39 | 24 | 0.0 | 0.0 | 0.06 | 0.21 | 0.45 | 96 | 1014.7 |
| 20260905031313 | 40 | 24 | 0.0 | 0.0 | 0.06 | 0.21 | 0.45 | 96 | 1014.6 |
| 20260905030811 | 40 | 24 | 0.0 | 0.0 | 0.06 | 0.21 | 0.45 | 96 | 1014.6 |
| 20260905030312 | 40 | 24 | 0.0 | 0.0 | 0.06 | 0.21 | 0.45 | 96 | 1014.6 |
| 20260905025813 | 40 | 24 | 0.0 | 0.0 | 0.07 | 0.21 | 0.45 | 95 | 1014.6 |
| 20260905025314 | 40 | 24 | 0.0 | 0.0 | 0.07 | 0.21 | 0.45 | 95 | 1014.6 |
| 20260905024815 | 40 | 24 | 0.0 | 0.0 | 0.07 | 0.21 | 0.45 | 95 | 1014.5 |
| 20260905024314 | 40 | 24 | 0.0 | 0.0 | 0.07 | 0.21 | 0.45 | 95 | 1014.4 |
| 20260905023815 | 40 | 24 | 0.0 | 0.0 | 0.07 | 0.21 | 0.45 | 95 | 1014.4 |
| 20260905023316 | 40 | 24 | 0.0 | 0.0 | 0.07 | 0.21 | 0.45 | 95 | 1014.4 |
| 20260905022817 | 40 | 24 | 0.0 | 0.0 | 0.07 | 0.21 | 0.45 | 95 | 1014.4 |
| 20260905022318 | 40 | 24 | 0.0 | 0.0 | 0.07 | 0.21 | 0.45 | 95 | 1014.4 |
| 20260905021817 | 40 | 24 | 0.0 | 0.0 | 0.07 | 0.21 | 0.45 | 95 | 1014.4 |
| 20260905021318 | 40 | 24 | 0.0 | 0.0 | 0.07 | 0.21 | 0.44 | 95 | 1014.3 |
| 20260905020819 | 41 | 297 | 0.0 | 0.0 | 0.07 | 0.21 | 0.43 | 95 | 1014.4 |
| 20260905020320 | 41 | 290 | 0.0 | 2.0 | 0.07 | 0.21 | 0.42 | 95 | 1014.4 |
| 20260905015821 | 41 | 314 | 1.0 | 2.0 | 0.07 | 0.21 | 0.39 | 95 | 1014.4 |
| 20260905015319 | 41 | 262 | 2.0 | 0.0 | 0.07 | 0.21 | 0.38 | 95 | 1014.5 |
| 20260905014820 | 41 | 281 | 2.0 | 9.0 | 0.07 | 0.21 | 0.37 | 95 | 1014.4 |
| 20260905014321 | 41 | 42 | 0.0 | 0.0 | 0.07 | 0.21 | 0.37 | 95 | 1014.3 |
| 20260905013822 | 41 | 42 | 0.0 | 0.0 | 0.07 | 0.21 | 0.37 | 95 | 1014.0 |
| 20260905013324 | 41 | 42 | 0.0 | 0.0 | 0.07 | 0.21 | 0.37 | 95 | 1013.8 |
| 20260905012822 | 41 | 42 | 0.0 | 0.0 | 0.07 | 0.21 | 0.37 | 95 | 1013.7 |
| 20260905012323 | 41 | 42 | 0.0 | 0.0 | 0.07 | 0.21 | 0.37 | 93 | 1013.7 |
| 20260905011824 | 41 | 42 | 0.0 | 0.0 | 0.07 | 0.21 | 0.36 | 92 | 1013.7 |
| 20260905011325 | 41 | 42 | 0.0 | 0.0 | 0.07 | 0.21 | 0.35 | 91 | 1013.7 |
| 20260905010826 | 41 | 42 | 0.0 | 0.0 | 0.07 | 0.21 | 0.35 | 90 | 1013.5 |
| 20260905005825 | 42 | 3 | 1.0 | 1.0 | 0.07 | 0.21 | 0.32 | 88 | 1013.7 |
| 20260905005326 | 42 | 253 | 2.0 | 1.0 | 0.00 | 0.21 | 0.29 | 90 | 1013.7 |
| 20260905004827 | 42 | 257 | 0.0 | 0.0 | 0.00 | 0.21 | 0.27 | 90 | 1013.4 |
| 20260905004329 | 42 | 257 | 0.0 | 0.0 | 0.00 | 0.21 | 0.26 | 89 | 1013.3 |
| 20260905003827 | 42 | 204 | 0.0 | 2.0 | 0.00 | 0.21 | 0.25 | 88 | 1013.0 |
| 20260905003328 | 42 | 121 | 0.0 | 0.0 | 0.00 | 0.21 | 0.25 | 88 | 1012.7 |
| 20260905002330 | 42 | 108 | 2.0 | 1.0 | 0.00 | 0.21 | 0.25 | 88 | 1012.5 |
| 20260905001831 | 42 | 75 | 1.0 | 1.0 | 0.00 | 0.21 | 0.25 | 88 | 1012.4 |
| 20260905001329 | 43 | 129 | 2.0 | 0.0 | 0.00 | 0.21 | 0.25 | 88 | 1012.4 |
| 20260905000830 | 43 | 42 | 2.0 | 2.0 | 0.00 | 0.21 | 0.25 | 88 | 1012.4 |
| 20260905000333 | 43 | 73 | 1.0 | 0.0 | 0.00 | 0.21 | 0.25 | 88 | 1012.4 |
| 20260904235832 | 43 | 87 | 1.0 | 1.0 | 0.00 | 0.21 | 0.25 | 88 | 1012.5 |
| 20260904235333 | 44 | 103 | 1.0 | 2.0 | 0.00 | 0.21 | 0.25 | 86 | 1012.5 |
| 20260904234831 | 44 | 165 | 3.0 | 1.0 | 0.00 | 0.21 | 0.25 | 85 | 1012.4 |
| 20260904234332 | 45 | 66 | 2.0 | 2.0 | 0.00 | 0.21 | 0.25 | 87 | 1012.4 |
| 20260904233833 | 46 | 87 | 2.0 | 2.0 | 0.00 | 0.21 | 0.25 | 81 | 1012.4 |
| 20260904233334 | 47 | 294 | 0.0 | 0.0 | 0.00 | 0.21 | 0.25 | 79 | 1012.2 |
| 20260904232835 | 47 | 177 | 0.0 | 1.0 | 0.00 | 0.21 | 0.25 | 76 | 1012.0 |
| 20260904232333 | 47 | 217 | 0.0 | 0.0 | 0.00 | 0.21 | 0.25 | 76 | 1011.8 |
| 20260904231335 | 47 | 188 | 0.0 | 0.0 | 0.00 | 0.21 | 0.25 | 76 | 1011.9 |
| 20260904230836 | 48 | 253 | 1.0 | 4.0 | 0.00 | 0.21 | 0.25 | 76 | 1011.9 |
| 20260904230337 | 48 | 181 | 2.0 | 3.0 | 0.00 | 0.21 | 0.25 | 74 | 1011.8 |
| 20260904225835 | 48 | 239 | 1.0 | 3.0 | 0.00 | 0.21 | 0.25 | 74 | 1011.8 |
| 20260904225336 | 48 | 203 | 2.0 | 1.0 | 0.00 | 0.21 | 0.25 | 71 | 1011.8 |
| 20260904224338 | 49 | 257 | 0.0 | 1.0 | 0.00 | 0.21 | 0.25 | 72 | 1011.7 |
| 20260904223839 | 49 | 253 | 0.0 | 1.0 | 0.00 | 0.21 | 0.25 | 71 | 1011.8 |
| 20260904223337 | 49 | 146 | 3.0 | 1.0 | 0.00 | 0.21 | 0.25 | 71 | 1011.8 |
| 20260904222839 | 49 | 229 | 1.0 | 1.0 | 0.00 | 0.21 | 0.25 | 76 | 1011.8 |
| 20260904222339 | 49 | 250 | 2.0 | 0.0 | 0.00 | 0.21 | 0.25 | 75 | 1011.9 |
| 20260904221841 | 49 | 219 | 2.0 | 1.0 | 0.00 | 0.21 | 0.25 | 74 | 1011.9 |
| 20260904221342 | 50 | 278 | 3.0 | 3.0 | 0.00 | 0.21 | 0.25 | 73 | 1011.7 |
| 20260904220341 | 50 | 274 | 5.0 | 2.0 | 0.00 | 0.21 | 0.25 | 73 | 1011.7 |
| 20260904215842 | 51 | 235 | 4.0 | 4.0 | 0.00 | 0.21 | 0.25 | 77 | 1011.7 |
| 20260904215343 | 50 | 240 | 4.0 | 1.0 | 0.03 | 0.21 | 0.25 | 77 | 1011.5 |
| 20260904214844 | 50 | 226 | 3.0 | 0.0 | 0.03 | 0.21 | 0.25 | 75 | 1011.4 |
| 20260904214342 | 50 | 293 | 1.0 | 3.0 | 0.03 | 0.21 | 0.25 | 77 | 1011.4 |
| 20260904213843 | 49 | 259 | 0.0 | 0.0 | 0.03 | 0.21 | 0.25 | 80 | 1011.3 |
| 20260904213344 | 49 | 291 | 1.0 | 2.0 | 0.03 | 0.21 | 0.25 | 79 | 1011.3 |
| 20260904212846 | 49 | 267 | 4.0 | 5.0 | 0.03 | 0.21 | 0.25 | 79 | 1011.3 |
| 20260904212346 | 49 | 211 | 3.0 | 1.0 | 0.03 | 0.21 | 0.25 | 79 | 1011.2 |
| 20260904211845 | 48 | 236 | 2.0 | 1.0 | 0.03 | 0.21 | 0.25 | 79 | 1011.1 |
| 20260904211346 | 48 | 68 | 0.0 | 0.0 | 0.03 | 0.21 | 0.25 | 82 | 1011.1 |
| 20260904210847 | 47 | 68 | 1.0 | 0.0 | 0.03 | 0.21 | 0.25 | 80 | 1010.9 |
| 20260904210348 | 47 | 105 | 2.0 | 1.0 | 0.03 | 0.21 | 0.25 | 82 | 1011.1 |
| 20260904205849 | 47 | 79 | 0.0 | 0.0 | 0.03 | 0.21 | 0.25 | 82 | 1010.9 |
| 20260904205347 | 47 | 79 | 0.0 | 0.0 | 0.06 | 0.21 | 0.25 | 80 | 1011.1 |
| 20260904204848 | 47 | 208 | 3.0 | 1.0 | 0.06 | 0.21 | 0.25 | 81 | 1010.9 |
| 20260904204349 | 47 | 242 | 1.0 | 1.0 | 0.06 | 0.21 | 0.25 | 83 | 1010.8 |
| 20260904203850 | 46 | 211 | 2.0 | 0.0 | 0.06 | 0.21 | 0.25 | 83 | 1010.8 |
| 20260904203351 | 46 | 115 | 1.0 | 0.0 | 0.06 | 0.21 | 0.25 | 85 | 1010.7 |
| 20260904202849 | 45 | 118 | 2.0 | 1.0 | 0.06 | 0.21 | 0.25 | 88 | 1010.7 |
| 20260904202350 | 45 | 39 | 3.0 | 2.0 | 0.06 | 0.21 | 0.25 | 90 | 1010.8 |
| 20260904201851 | 44 | 31 | 0.0 | 0.0 | 0.06 | 0.21 | 0.25 | 90 | 1010.8 |
| 20260904201352 | 44 | 21 | 0.0 | 0.0 | 0.06 | 0.21 | 0.25 | 91 | 1010.9 |
| 20260904200853 | 44 | 21 | 0.0 | 0.0 | 0.06 | 0.21 | 0.25 | 89 | 1010.9 |
| 20260904200351 | 44 | 221 | 0.0 | 0.0 | 0.06 | 0.21 | 0.24 | 90 | 1011.1 |
| 20260904195852 | 44 | 221 | 0.0 | 0.0 | 0.06 | 0.21 | 0.23 | 92 | 1011.1 |
| 20260904195353 | 44 | 211 | 0.0 | 0.0 | 0.00 | 0.21 | 0.21 | 91 | 1010.9 |
| 20260904194854 | 44 | 298 | 2.0 | 0.0 | 0.00 | 0.21 | 0.21 | 89 | 1010.7 |
| 20260904194354 | 44 | 115 | 0.0 | 3.0 | 0.00 | 0.21 | 0.21 | 94 | 1010.8 |
| 20260904193853 | 43 | 145 | 0.0 | 0.0 | 0.00 | 0.21 | 0.21 | 96 | 1010.9 |
| 20260904193353 | 42 | 145 | 0.0 | 0.0 | 0.00 | 0.21 | 0.21 | 90 | 1010.9 |
| 20260904192854 | 43 | 145 | 0.0 | 0.0 | 0.00 | 0.21 | 0.19 | 89 | 1011.1 |
| 20260904192355 | 43 | 145 | 0.0 | 0.0 | 0.00 | 0.21 | 0.17 | 89 | 1010.9 |
| 20260904191856 | 43 | 145 | 0.0 | 0.0 | 0.00 | 0.21 | 0.17 | 88 | 1010.9 |
| 20260904191354 | 43 | 145 | 0.0 | 0.0 | 0.00 | 0.21 | 0.17 | 89 | 1010.9 |
| 20260904190855 | 43 | 145 | 0.0 | 0.0 | 0.00 | 0.21 | 0.16 | 88 | 1010.9 |
| 20260904190356 | 43 | 110 | 2.0 | 2.0 | 0.00 | 0.21 | 0.16 | 88 | 1010.9 |
| 20260904185857 | 43 | 138 | 0.0 | 0.0 | 0.00 | 0.21 | 0.16 | 87 | 1011.1 |
| 20260904185358 | 43 | 70 | 2.0 | 0.0 | 0.00 | 0.21 | 0.16 | 87 | 1011.1 |
| 20260904184856 | 43 | 97 | 4.0 | 5.0 | 0.00 | 0.21 | 0.16 | 87 | 1010.9 |
| 20260904184357 | 43 | 23 | 1.0 | 1.0 | 0.00 | 0.21 | 0.16 | 92 | 1010.9 |
| 20260904183858 | 43 | 240 | 3.0 | 4.0 | 0.00 | 0.21 | 0.16 | 90 | 1010.7 |
| 20260904183359 | 43 | 174 | 3.0 | 2.0 | 0.00 | 0.21 | 0.16 | 89 | 1010.7 |
| 20260904182859 | 43 | 127 | 2.0 | 6.0 | 0.00 | 0.21 | 0.16 | 90 | 1010.8 |
| 20260904182357 | 43 | 58 | 0.0 | 4.0 | 0.00 | 0.21 | 0.16 | 89 | 1010.7 |
| 20260904181858 | 44 | 217 | 2.0 | 0.0 | 0.00 | 0.21 | 0.16 | 89 | 1010.7 |
| 20260904181359 | 43 | 37 | 1.0 | 0.0 | 0.00 | 0.21 | 0.16 | 88 | 1010.6 |
| 20260904180900 | 43 | 226 | 0.0 | 0.0 | 0.00 | 0.21 | 0.16 | 88 | 1010.6 |
| 20260904180401 | 43 | 134 | 0.0 | 0.0 | 0.00 | 0.21 | 0.16 | 89 | 1010.6 |
| 20260904175859 | 43 | 211 | 1.0 | 2.0 | 0.00 | 0.21 | 0.16 | 89 | 1010.6 |
| 20260904175400 | 43 | 173 | 1.0 | 0.0 | 0.00 | 0.21 | 0.16 | 88 | 1010.5 |
| 20260904174901 | 42 | 200 | 0.0 | 0.0 | 0.00 | 0.21 | 0.16 | 89 | 1010.5 |
| 20260904174402 | 43 | 166 | 1.0 | 1.0 | 0.00 | 0.21 | 0.16 | 89 | 1010.5 |
| 20260904173902 | 43 | 229 | 2.0 | 1.0 | 0.00 | 0.21 | 0.16 | 86 | 1010.3 |
| 20260904173400 | 43 | 107 | 0.0 | 0.0 | 0.00 | 0.21 | 0.16 | 87 | 1010.2 |
| 20260904172901 | 43 | 107 | 0.0 | 0.0 | 0.00 | 0.21 | 0.16 | 86 | 1010.2 |
| 20260904172402 | 43 | 107 | 0.0 | 0.0 | 0.00 | 0.21 | 0.16 | 83 | 1010.1 |
| 20260904171903 | 43 | 107 | 0.0 | 0.0 | 0.00 | 0.21 | 0.16 | 87 | 1010.1 |
| 20260904171403 | 43 | 107 | 0.0 | 0.0 | 0.00 | 0.21 | 0.16 | 84 | 1010.0 |
| 20260904170902 | 43 | 107 | 1.0 | 0.0 | 0.00 | 0.21 | 0.16 | 87 | 1010.0 |
| 20260904170402 | 43 | 84 | 0.0 | 0.0 | 0.00 | 0.21 | 0.16 | 88 | 1009.9 |
| 20260904165903 | 43 | 101 | 0.0 | 0.0 | 0.00 | 0.21 | 0.16 | 89 | 1009.9 |
| 20260904165404 | 42 | 101 | 0.0 | 0.0 | 0.01 | 0.21 | 0.16 | 90 | 1009.9 |
| 20260904164905 | 42 | 101 | 0.0 | 0.0 | 0.01 | 0.21 | 0.16 | 92 | 1009.9 |
| 20260904164403 | 42 | 101 | 0.0 | 0.0 | 0.01 | 0.21 | 0.16 | 91 | 1009.9 |
| 20260904163903 | 42 | 101 | 0.0 | 0.0 | 0.01 | 0.21 | 0.16 | 91 | 1009.8 |
| 20260904163404 | 42 | 101 | 0.0 | 0.0 | 0.01 | 0.21 | 0.16 | 92 | 1009.8 |
| 20260904162905 | 41 | 101 | 0.0 | 0.0 | 0.01 | 0.21 | 0.16 | 91 | 1009.8 |
| 20260904162406 | 41 | 101 | 1.0 | 0.0 | 0.01 | 0.21 | 0.16 | 89 | 1009.6 |
| 20260904161904 | 41 | 14 | 0.0 | 0.0 | 0.01 | 0.21 | 0.16 | 90 | 1009.5 |
| 20260904161405 | 41 | 215 | 0.0 | 0.0 | 0.01 | 0.21 | 0.16 | 93 | 1009.5 |
| 20260904160906 | 41 | 215 | 0.0 | 0.0 | 0.01 | 0.21 | 0.16 | 94 | 1009.5 |
| 20260904160407 | 40 | 215 | 0.0 | 0.0 | 0.01 | 0.21 | 0.16 | 95 | 1009.5 |
| 20260904155907 | 40 | 215 | 0.0 | 0.0 | 0.01 | 0.21 | 0.16 | 95 | 1009.5 |
| 20260904155405 | 40 | 215 | 0.0 | 0.0 | 0.02 | 0.21 | 0.16 | 95 | 1009.6 |
| 20260904154906 | 40 | 215 | 0.0 | 0.0 | 0.02 | 0.21 | 0.16 | 96 | 1009.6 |
| 20260904154407 | 40 | 215 | 0.0 | 0.0 | 0.02 | 0.21 | 0.16 | 97 | 1009.8 |
| 20260904153908 | 40 | 215 | 0.0 | 0.0 | 0.02 | 0.21 | 0.16 | 97 | 1009.6 |
| 20260904153409 | 39 | 215 | 0.0 | 0.0 | 0.02 | 0.21 | 0.16 | 97 | 1009.6 |
| 20260904152907 | 39 | 215 | 0.0 | 0.0 | 0.02 | 0.21 | 0.16 | 97 | 1009.6 |
| 20260904152408 | 39 | 215 | 0.0 | 0.0 | 0.02 | 0.21 | 0.16 | 97 | 1009.5 |
| 20260904151908 | 38 | 215 | 0.0 | 0.0 | 0.02 | 0.21 | 0.16 | 97 | 1009.5 |
| 20260904151409 | 38 | 215 | 0.0 | 0.0 | 0.02 | 0.21 | 0.16 | 97 | 1009.4 |
| 20260904150910 | 38 | 215 | 0.0 | 0.0 | 0.02 | 0.21 | 0.16 | 97 | 1009.4 |
| 20260904150408 | 38 | 215 | 0.0 | 0.0 | 0.02 | 0.21 | 0.16 | 97 | 1009.4 |
| 20260904145909 | 38 | 215 | 0.0 | 0.0 | 0.02 | 0.21 | 0.15 | 97 | 1009.3 |
| 20260904145410 | 38 | 215 | 0.0 | 0.0 | 0.00 | 0.21 | 0.15 | 97 | 1009.3 |
| 20260904144911 | 38 | 215 | 0.0 | 0.0 | 0.00 | 0.21 | 0.14 | 97 | 1009.3 |
| 20260904144412 | 38 | 215 | 0.0 | 0.0 | 0.00 | 0.21 | 0.13 | 97 | 1009.3 |
| 20260904143910 | 38 | 215 | 0.0 | 0.0 | 0.00 | 0.21 | 0.13 | 97 | 1009.2 |
| 20260904143410 | 38 | 215 | 0.0 | 0.0 | 0.00 | 0.21 | 0.13 | 97 | 1009.2 |
| 20260904142911 | 38 | 215 | 0.0 | 0.0 | 0.00 | 0.21 | 0.13 | 97 | 1008.9 |
| 20260904142412 | 38 | 215 | 0.0 | 0.0 | 0.00 | 0.21 | 0.13 | 97 | 1008.9 |
| 20260904141913 | 38 | 215 | 0.0 | 0.0 | 0.00 | 0.21 | 0.13 | 97 | 1008.9 |
| 20260904141411 | 38 | 215 | 0.0 | 0.0 | 0.00 | 0.21 | 0.13 | 97 | 1008.8 |
| 20260904140911 | 38 | 215 | 0.0 | 0.0 | 0.00 | 0.21 | 0.13 | 97 | 1008.8 |
| 20260904140412 | 37 | 215 | 0.0 | 0.0 | 0.00 | 0.21 | 0.13 | 97 | 1008.7 |
| 20260904135913 | 37 | 215 | 0.0 | 0.0 | 0.00 | 0.21 | 0.13 | 97 | 1008.6 |
| 20260904135414 | 37 | 215 | 0.0 | 0.0 | 0.06 | 0.21 | 0.13 | 97 | 1008.6 |
| 20260904134912 | 37 | 215 | 0.0 | 0.0 | 0.06 | 0.21 | 0.13 | 96 | 1008.6 |
| 20260904134413 | 37 | 215 | 0.0 | 0.0 | 0.06 | 0.21 | 0.13 | 96 | 1008.6 |
| 20260904133914 | 37 | 215 | 0.0 | 0.0 | 0.06 | 0.21 | 0.13 | 96 | 1008.5 |
| 20260904133414 | 37 | 215 | 0.0 | 0.0 | 0.06 | 0.21 | 0.13 | 96 | 1008.5 |
| 20260904132413 | 37 | 215 | 0.0 | 0.0 | 0.06 | 0.21 | 0.13 | 96 | 1008.3 |
| 20260904131415 | 37 | 215 | 0.0 | 0.0 | 0.06 | 0.21 | 0.13 | 96 | 1008.2 |
| 20260904130916 | 37 | 215 | 0.0 | 0.0 | 0.06 | 0.21 | 0.13 | 96 | 1008.2 |
| 20260904130417 | 37 | 215 | 0.0 | 0.0 | 0.06 | 0.21 | 0.13 | 96 | 1008.2 |
| 20260904125915 | 37 | 215 | 0.0 | 0.0 | 0.06 | 0.21 | 0.13 | 96 | 1008.2 |
| 20260904125416 | 37 | 215 | 0.0 | 0.0 | 0.07 | 0.21 | 0.13 | 96 | 1008.3 |
| 20260904124916 | 37 | 215 | 0.0 | 0.0 | 0.07 | 0.21 | 0.12 | 96 | 1008.2 |
| 20260904124417 | 37 | 215 | 0.0 | 0.0 | 0.07 | 0.21 | 0.12 | 95 | 1008.3 |
| 20260904123918 | 37 | 215 | 0.0 | 0.0 | 0.07 | 0.21 | 0.12 | 95 | 1008.3 |
| 20260904123416 | 37 | 215 | 0.0 | 0.0 | 0.07 | 0.21 | 0.12 | 95 | 1008.2 |
| 20260904122917 | 37 | 215 | 0.0 | 0.0 | 0.07 | 0.21 | 0.12 | 95 | 1008.2 |
| 20260904122417 | 37 | 215 | 0.0 | 0.0 | 0.07 | 0.21 | 0.12 | 95 | 1008.2 |
| 20260904121918 | 38 | 215 | 0.0 | 0.0 | 0.07 | 0.21 | 0.12 | 95 | 1008.2 |
| 20260904121419 | 38 | 215 | 0.0 | 0.0 | 0.07 | 0.21 | 0.12 | 94 | 1008.3 |
| 20260904120917 | 38 | 215 | 0.0 | 0.0 | 0.07 | 0.21 | 0.10 | 95 | 1008.5 |
| 20260904120418 | 38 | 215 | 0.0 | 0.0 | 0.07 | 0.21 | 0.08 | 95 | 1008.3 |
| 20260904115918 | 38 | 215 | 0.0 | 0.0 | 0.07 | 0.21 | 0.07 | 95 | 1008.3 |
| 20260904115419 | 38 | 215 | 0.0 | 0.0 | 0.00 | 0.21 | 0.05 | 95 | 1008.3 |
| 20260904114920 | 38 | 215 | 0.0 | 0.0 | 0.00 | 0.21 | 0.05 | 95 | 1008.3 |
| 20260904114418 | 38 | 215 | 0.0 | 0.0 | 0.00 | 0.21 | 0.03 | 94 | 1008.3 |
| 20260904113919 | 38 | 215 | 0.0 | 0.0 | 0.00 | 0.21 | 0.02 | 93 | 1008.2 |
| 20260904113419 | 38 | 215 | 0.0 | 0.0 | 0.00 | 0.21 | 0.01 | 93 | 1008.1 |
| 20260904112920 | 38 | 215 | 0.0 | 0.0 | 0.00 | 0.21 | 0.01 | 92 | 1008.1 |
| 20260904112421 | 38 | 215 | 0.0 | 0.0 | 0.00 | 0.21 | 0.01 | 91 | 1008.1 |
| 20260904111919 | 38 | 226 | 0.0 | 0.0 | 0.00 | 0.21 | 0.00 | 93 | 1008.1 |
| 20260904111419 | 38 | 226 | 0.0 | 0.0 | 0.00 | 0.21 | 0.00 | 92 | 1008.1 |
| 20260904110920 | 38 | 226 | 0.0 | 0.0 | 0.00 | 0.21 | 0.00 | 91 | 1008.0 |
| 20260904110421 | 38 | 226 | 0.0 | 0.0 | 0.00 | 0.21 | 0.00 | 90 | 1008.0 |
| 20260904105921 | 38 | 226 | 0.0 | 0.0 | 0.00 | 0.21 | 0.00 | 90 | 1007.9 |
| 20260904105419 | 38 | 226 | 0.0 | 0.0 | 0.00 | 0.21 | 0.00 | 89 | 1007.9 |
| 20260904104920 | 38 | 226 | 0.0 | 0.0 | 0.00 | 0.21 | 0.00 | 89 | 1007.7 |
| 20260904104421 | 38 | 226 | 0.0 | 0.0 | 0.00 | 0.21 | 0.00 | 89 | 1007.7 |
| 20260904103922 | 38 | 226 | 0.0 | 0.0 | 0.00 | 0.21 | 0.00 | 88 | 1007.6 |
| 20260904103422 | 38 | 226 | 0.0 | 0.0 | 0.00 | 0.21 | 0.00 | 88 | 1007.6 |
| 20260904102920 | 38 | 226 | 0.0 | 0.0 | 0.00 | 0.21 | 0.00 | 89 | 1007.7 |
| 20260904102421 | 38 | 226 | 0.0 | 0.0 | 0.00 | 0.21 | 0.00 | 89 | 1007.7 |
| 20260904101922 | 38 | 226 | 1.0 | 0.0 | 0.00 | 0.21 | 0.00 | 89 | 1007.7 |
| 20260904101423 | 38 | 208 | 0.0 | 0.0 | 0.00 | 0.21 | 0.00 | 90 | 1007.7 |
| 20260904100923 | 38 | 208 | 0.0 | 0.0 | 0.00 | 0.21 | 0.00 | 91 | 1007.7 |
| 20260904100421 | 38 | 208 | 0.0 | 0.0 | 0.00 | 0.21 | 0.00 | 90 | 1007.7 |
| 20260904095922 | 38 | 208 | 0.0 | 0.0 | 0.00 | 0.21 | 0.00 | 90 | 1007.7 |
| 20260904095423 | 38 | 148 | 0.0 | 2.0 | 0.00 | 0.21 | 0.00 | 92 | 1007.7 |
| 20260904094924 | 38 | 129 | 1.0 | 0.0 | 0.00 | 0.21 | 0.00 | 94 | 1007.7 |
| 20260904094424 | 38 | 253 | 0.0 | 0.0 | 0.00 | 0.21 | 0.00 | 95 | 1007.7 |
| 20260904093922 | 38 | 253 | 0.0 | 0.0 | 0.00 | 0.21 | 0.00 | 95 | 1007.9 |
| 20260904093423 | 38 | 253 | 0.0 | 0.0 | 0.00 | 0.21 | 0.00 | 94 | 1007.9 |
| 20260904092924 | 38 | 253 | 0.0 | 0.0 | 0.00 | 0.21 | 0.00 | 94 | 1007.7 |
| 20260904092425 | 38 | 253 | 0.0 | 0.0 | 0.00 | 0.21 | 0.00 | 94 | 1007.9 |
| 20260904091925 | 38 | 253 | 0.0 | 0.0 | 0.00 | 0.21 | 0.00 | 93 | 1007.7 |
| 20260904091423 | 38 | 253 | 0.0 | 0.0 | 0.00 | 0.21 | 0.00 | 93 | 1007.7 |
| 20260904090924 | 38 | 253 | 0.0 | 0.0 | 0.00 | 0.21 | 0.00 | 92 | 1007.6 |
| 20260904090425 | 38 | 253 | 0.0 | 0.0 | 0.00 | 0.21 | 0.00 | 93 | 1007.6 |
| 20260904085926 | 38 | 253 | 0.0 | 0.0 | 0.00 | 0.21 | 0.00 | 93 | 1007.9 |
| 20260904085427 | 38 | 253 | 0.0 | 0.0 | 0.00 | 0.21 | 0.00 | 92 | 1007.7 |
| 20260904084925 | 38 | 253 | 0.0 | 0.0 | 0.00 | 0.21 | 0.00 | 92 | 1007.9 |
| 20260904084426 | 38 | 238 | 1.0 | 0.0 | 0.00 | 0.21 | 0.00 | 92 | 1007.7 |
| 20260904083926 | 38 | 217 | 0.0 | 0.0 | 0.00 | 0.21 | 0.00 | 94 | 1007.7 |
| 20260904083427 | 38 | 217 | 0.0 | 0.0 | 0.00 | 0.21 | 0.00 | 93 | 1007.7 |
| 20260904082928 | 38 | 217 | 0.0 | 0.0 | 0.00 | 0.21 | 0.00 | 94 | 1007.7 |
| 20260904082426 | 38 | 314 | 0.0 | 0.0 | 0.00 | 0.21 | 0.00 | 95 | 1007.6 |
| 20260904081927 | 38 | 314 | 0.0 | 0.0 | 0.00 | 0.21 | 0.00 | 95 | 1007.6 |
| 20260904081428 | 38 | 314 | 0.0 | 0.0 | 0.00 | 0.21 | 0.00 | 95 | 1007.6 |
| 20260904080929 | 38 | 314 | 0.0 | 0.0 | 0.00 | 0.21 | 0.00 | 95 | 1007.6 |
| 20260904080429 | 38 | 314 | 0.0 | 0.0 | 0.00 | 0.21 | 0.00 | 95 | 1007.5 |
| 20260904075927 | 38 | 314 | 0.0 | 0.0 | 0.00 | 0.21 | 0.00 | 95 | 1007.6 |
| 20260904075428 | 38 | 314 | 0.0 | 0.0 | 0.00 | 0.21 | 0.00 | 95 | 1007.6 |
| 20260904074929 | 38 | 314 | 0.0 | 0.0 | 0.00 | 0.21 | 0.00 | 96 | 1007.7 |
| 20260904074430 | 38 | 314 | 0.0 | 0.0 | 0.00 | 0.21 | 0.00 | 96 | 1007.7 |
| 20260904073931 | 38 | 314 | 0.0 | 0.0 | 0.00 | 0.21 | 0.00 | 96 | 1007.6 |